Regional Weather Roundup
Issued by NWS

Home | Current Version | Previous Version | Graphics & Text | Print | Product List | Glossary On
Versions: 1 2 3 4 5 6 7 8 9 10 11 12 13 14 15 16 17 18 19 20 21 22 23 24 25 26 27 28 29 30 31 32 33 34 35 36 37 38 39 40 41 42 43 44 45 46 47 48 49 50
000
ASUS45 KCYS 200710
RWRWY

WYOMING REGIONAL WEATHER ROUNDUP
NATIONAL WEATHER SERVICE CHEYENNE WY
1200 AM MST SAT DEC 20 2014

NOTE:  "FAIR" INDICATES FEW OR NO CLOUDS BELOW 12,000 FEET
WITH NO SIGNIFICANT WEATHER AND/OR OBSTRUCTIONS TO VISIBILITY.

WYZ001-200800-
YELLOWSTONE NATIONAL PARK

CITY           SKY/WX    TMP DP  RH WIND       PRES   REMARKS
LK YELLOWSTONE   N/A     26  21  81 VRB5      30.01F WCI  20
W YELLOWSTONE  NOT AVBL

$$
WYZ002>013-054>058-071-098>099-200800-
NORTHERN WYOMING

CITY           SKY/WX    TMP DP  RH WIND       PRES   REMARKS
JACKSON        CLOUDY    30  28  93 S12       30.04F WCI  21
CODY           CLOUDY    39  23  52 W13G18    29.92S WCI  32
GREYBULL       FAIR      19  15  84 CALM      29.98S
WORLAND        FAIR      14  11  87 S6        29.97S WCI   5
SHERIDAN       CLOUDY    28  21  75 CALM      29.90R
BUFFALO        CLOUDY    36  20  52 NW6       29.89S WCI  31
GILLETTE       FAIR      33  22  63 VRB3      29.88F
HULETT           N/A    N/A N/A N/A MISG        N/A
NEWCASTLE      FAIR      23  19  86 CALM      29.94S

$$
WYZ014>020-022>026-101>103-200800-
CENTRAL WYOMING

CITY           SKY/WX    TMP DP  RH WIND       PRES   REMARKS
BIG PINEY      FAIR      21  17  84 E5        30.07S WCI  15
PINEDALE       FAIR      23  21  93 CALM      30.08R
DUBOIS         NOT AVBL
LANDER         FAIR      11   7  84 W8        29.98R WCI  -1
RIVERTON       FAIR       9   6  88 NW5       29.99S WCI   1
CASPER         FAIR      30  21  69 SW24      29.98S WCI  16
DOUGLAS        FAIR      26  19  74 CALM      29.95F

$$
WYZ021-027>030-104>119-200800-
SOUTHERN WYOMING

CITY           SKY/WX    TMP DP  RH WIND       PRES   REMARKS
EVANSTON       CLOUDY    30  22  72 SW20      30.09F WCI  17
KEMMERER       CLOUDY    28  27  93 CALM      30.10S
FORT BRIDGER   CLOUDY    32  24  73 W12       30.12F WCI  23
ROCK SPRINGS   CLOUDY    29  22  75 SW9       30.09F WCI  20
DIXON          CLOUDY    21  18  86 N3        30.17R
RAWLINS        CLOUDY    30  20  66 W17G26    30.06S WCI  18
SARATOGA       CLOUDY    27  19  74 SE8       30.09F WCI  18
LARAMIE        FAIR      23  13  65 SW6       30.03R WCI  16
CHEYENNE       FAIR      30  15  53 SW9       29.98S WCI  22
TORRINGTON     FAIR     N/A N/A N/A E7        29.96S
PINE BLUFFS    FAIR      21  18  86 S5        29.99F WCI  15

$$



USA.gov is the U.S. government's official web portal to all federal, state and local government web resources and services.